Dean International
Flight School

Career Spotlight

Mika

Mika

Congratulations to Mika from Khazakstan. She recently sent us this photo of her flying an Airbus airliner.

More...
Mika's Success Story
close

Congratulations to Mika from Khazakstan. She recently sent us this photo of her flying an Airbus airliner.

Mario

Mario

My dreams could not have been realized if I wouldn't have been part of the Dean International family.

More...
Mario's Success Story
close

"My dreams could not have been realized if I wouldn't have been part of the Dean International family. Thank you Robert, thanks to all my co-workers, and thanks to all of my students!"

Fernando

Fernando

I am now working as a First Officer at TACA and am enjoying every moment of it.

More...
Fernando's Success Story
close

"Will never forget my time of flight training at Dean International. I am now working as a First Officer at TACA and am enjoying every moment of it."

Alvaro

Alvaro

Because of the flight time I was able to built while instructing, I got the experience needed to apply to an airline in Colombia.

More...
Alvaro's Success Story
close

Dean alumnus Alvaro Londoño currently flies with Tampa Cargo. He says of his experience at Dean: "I want to take this opportunity to thank you for giving me the chance to build my experience and expand my knowledge in Dean International. Because of the flight time I was able to built flight instructing, I got the experience needed to apply to an airline in Colombia."

Ralph

Ralph

Every Aruban student of Dean International has made it into Tiara Air Aruba, that is very nice.

More...
Ralph's Success Story
close

"Next to me is my Co-Pilot, Elison. This picture was taken on our first flight together, which was almost exactly 5 years after I finished at Dean International. [...] Every Aruban student of Dean International has made it into Tiara Air Aruba. [...] The future looks bright here in Aruba."

Rohaan

Rohaan

The [..] staff will all work diligently to help you finish your certificates as safely and efficiently as possible.

More...
Rohaan's Success Story
close

After receiving very hard times from other flight schools [...], I came to Dean International where Robert Dean personally sat down with me and gave me a financial and chronological look into how much remained to finish my private pilot certificate. Through his hard efforts as an instructor and mentor, I was able to finish my private pilot certificate within one week.

Welcome to Dean International

In over two decades, Dean International has educated over 7,000 pilots from all over the world, including over 1,000 students from India alone. By offering a great training experience, a friendly service staff, an ample variety of aircraft, and by improving constantly, we have become one of the largest, most prestigious FAA 141-approved flight schools in North America. Located in Miami, Florida, USA, our flight school offers an ideal location for year-round, "learn to fly" weather, flight training. Dean International is not only well-equipped to provide services to professional trainees but also caters to General Aviation renters. Visit or contact our headquarters at Kendall-Tamiami Executive Airport located in Miami, FL today to learn more about us, or simply read more about our programs if you are an international student interested in joining our school.

Local Airport Information
TAF FOR KTMB (Issued: Sun, September 21st 2014 9:57 PM UTC)
TAF
      AMD KTMB 212056Z 2121/2218 00000KT P6SM VCTS FEW025CB BKN250
      FM220000 VRB03KT P6SM SCT025 BKN060
     
METAR FOR KTMB (Issued: Sun, September 21st 2014 9:53 PM UTC):
KTMB 212153Z 14005KT 8SM -RA FEW017 BKN080 OVC100 27/24 A2998 RMK AO2 TSB07E23 SLP150 P0000 T02720239

This weather information is provided by the National Weather Service.
It is automatically refreshed every three minutes.
TAF FOR KHST (Issued: Sun, September 21st 2014 9:08 PM UTC)
TAF
      AMD KHST 2121/2222 06006KT 8000 -TSRA BKN040CB BKN190 QNH2995INS
      BECMG 2121/2122 08006KT 9999 NSW SCT040 QNH2994INS
      TEMPO 2122/2123 VRB10G15KT 4800 -TSRA FEW010 BKN035CB BKN190
      BECMG 2214/2215 12006KT 9000 -SHRA FEW010 BKN030 BKN190 QNH2998INS
      TEMPO 2216/2220 13010G18KT 4800 -TSRA FEW010 BKN025CB BKN190 TX32/2219Z TN22/2209Z
      AMD 212102
     
METAR FOR KHST (Issued: Sun, September 21st 2014 9:59 PM UTC):
KHST 212159Z AUTO 06006KT 5SM -RA BR FEW011 SCT041 BKN060 25/23 A2998 RMK AO2 RAE2101B2128DZB2129E2140

This weather information is provided by the National Weather Service.
It is automatically refreshed every three minutes.
TAF FOR KOPF (Issued: Sun, September 21st 2014 9:57 PM UTC)
TAF
      AMD KOPF 212056Z 2121/2218 34004KT P6SM VCTS SCT035CB BKN250
      FM220000 VRB03KT P6SM SCT025 BKN060
     
METAR FOR KOPF (Issued: Sun, September 21st 2014 9:53 PM UTC):
KOPF 212153Z 15008KT 10SM CLR 30/22 A2997 RMK AO2 SLP150 T03000217

This weather information is provided by the National Weather Service.
It is automatically refreshed every three minutes.
TAF FOR KMIA (Issued: Sun, September 21st 2014 9:57 PM UTC)
TAF
      AMD KMIA 212056Z 2121/2218 VRB03KT P6SM VCTS SCT030CB BKN160 BKN250
      FM220000 VRB03KT P6SM SCT025 BKN060
     
METAR FOR KMIA (Issued: Sun, September 21st 2014 9:53 PM UTC):
KMIA 212153Z 15007KT 10SM -RA SCT040 BKN130 BKN250 29/23 A2998 RMK AO2 RAB44 SLP151 CB DSNT S-SW AND NW-N P0000 T02890233

This weather information is provided by the National Weather Service.
It is automatically refreshed every three minutes.
Design by Ariel Llizo
© Dean International Inc. 2012